Flag for Turkey Weather past 2 weeks in Mersin, Turkey

Now
66 °F

Passing clouds.


Feels Like: 66 °F
Forecast: 56 / 72 °F
Wind: 1 mph from North

Location: Adana / Sakirpasa

Current Time: May 28, 2015 at 7:22:11 AM

Latest Report: May 28, 2015 at 6:20 AM


Visibility: N/A

Pressure: 29.68 "Hg

Humidity: 83%

Dew point: 61 °F

Location of MersinLocation

Historic Weather in Mersin — Graph

°F

Mersin temperature yesterday

Maximum temperature yesterday: 84 °F (at 3:50 PM)
Minimum temperature yesterday: 66 °F (at 3:20 AM)
Average temperature yesterday: 75 °F

Past Weeks' High & Low Weather Summary

 TemperatureHumidityPressure
High100 °F (May 19, 2:20 PM)94% (May 14, 5:50 AM)30.18 "Hg (May 14, 5:50 AM)
Low59 °F (May 14, 3:50 AM)12% (May 19, 4:20 PM)29.65 "Hg (May 27, 6:50 PM)
Average74 °F61%29.88 "Hg
* Reported May 13 5:20 AM — May 28 5:50 AM, Mersin, Weather by CustomWeather, © 2015

Note: Actual official high and low records may vary slightly from our data, if they occured in-between our weather recording intervals... More about our weather records

Advertising

Mersin weather history for previous 24 hours

 ConditionsComfort  
Time TempWeatherWind HumidityBarometerVisibility
5:50 AM
Thu, May 28
66 °FPassing clouds.3 mph78%29.68 "HgN/A
5:20 AM64 °FPassing clouds.2 mph83%29.65 "HgN/A
4:50 AM64 °FPassing clouds.No wind83%29.65 "HgN/A
4:20 AM64 °FPassing clouds.No wind83%29.65 "HgN/A
3:50 AM64 °FPassing clouds.No wind83%29.65 "HgN/A
3:20 AM64 °FPassing clouds.No wind83%29.65 "HgN/A
2:50 AM66 °FPassing clouds.No wind78%29.65 "HgN/A
2:20 AM66 °FPassing clouds.1 mph78%29.65 "HgN/A
1:50 AM63 °FPassing clouds.2 mph88%29.65 "HgN/A
1:20 AM64 °FPassing clouds.No wind83%29.65 "HgN/A
12:50 AM64 °FPassing clouds.No wind83%29.65 "HgN/A
12:20 AM66 °FPassing clouds.1 mph83%29.65 "HgN/A
11:50 PM
Wed, May 27
66 °FPassing clouds.No wind83%29.65 "HgN/A
11:20 PM68 °FPassing clouds.No wind78%29.65 "HgN/A
10:50 PM70 °FPassing clouds.3 mph73%29.65 "HgN/A
10:20 PM72 °FPassing clouds.2 mph65%29.65 "HgN/A
9:50 PM77 °FPassing clouds.5 mph54%29.65 "HgN/A
9:20 PM79 °FPassing clouds.6 mph51%29.65 "HgN/A
8:50 PM79 °FPassing clouds.7 mph51%29.65 "HgN/A
8:20 PM79 °FBroken clouds.6 mph45%29.65 "HgN/A
7:50 PM81 °FBroken clouds.7 mph45%29.65 "HgN/A
7:20 PM81 °FBroken clouds.12 mph45%29.65 "HgN/A
6:50 PM82 °FBroken clouds.10 mph42%29.65 "HgN/A
6:20 PM82 °FBroken clouds.10 mph42%29.68 "HgN/A
5:50 PM82 °FBroken clouds.10 mph45%29.68 "HgN/A
5:20 PM82 °FBroken clouds.9 mph45%29.71 "HgN/A
4:50 PM82 °FBroken clouds.6 mph45%29.71 "HgN/A
4:20 PM82 °FBroken clouds.3 mph45%29.74 "HgN/A
3:50 PM84 °FBroken clouds.5 mph45%29.77 "HgN/A
3:20 PM82 °FBroken clouds.3 mph45%29.77 "HgN/A
2:50 PM82 °FBroken clouds.5 mph48%29.77 "HgN/A
2:20 PM81 °FBroken clouds.8 mph48%29.77 "HgN/A
1:50 PM81 °FBroken clouds.8 mph48%29.80 "HgN/A
1:20 PM79 °FSprinkles. Broken clouds.13 mph54%29.77 "HgN/A
12:50 PM79 °FBroken clouds.9 mph54%29.83 "HgN/A
12:20 PM79 °FBroken clouds.7 mph54%29.89 "HgN/A
11:50 AM79 °FBroken clouds.6 mph51%29.80 "HgN/A
11:20 AM79 °FBroken clouds.6 mph54%29.83 "HgN/A
10:50 AM75 °FBroken clouds.2 mph61%29.83 "HgN/A
10:20 AM75 °FBroken clouds.10 mph61%29.89 "HgN/A
9:50 AM75 °FBroken clouds.7 mph57%29.86 "HgN/A
9:20 AM75 °FBroken clouds.5 mph61%29.86 "HgN/A
8:50 AM75 °FBroken clouds.8 mph61%29.83 "HgN/A
8:20 AM73 °FBroken clouds.10 mph69%29.89 "HgN/A
7:50 AM72 °FPartly sunny.6 mph69%29.83 "HgN/A
7:20 AM72 °FPartly sunny.3 mph73%29.83 "HgN/A
Weather by CustomWeather, © 2015

See weather overviewHow to use our weather pages